Back to catalog

STARLINK-35352

AliveCommunicationsVLEO
NORAD 66177·PAYLOAD·🇺🇸 United States

Launched Oct 26, 2025 from Cape Canaveral Space Force Station

Loading…

Next Passes (next 24 hours)

TLE

FreshSource: Space-Track

Epoch: Sep 13, 2026, 22:04 UTC

1 66177U 25243A   26256.91997302  .00019707  00000-0  59273-3 0  9997
2 66177  53.1584  88.7439 0000928 105.2463 254.8642 15.34406304 49503

Track STARLINK-35352 in real time with AllMySat

Download on the App Store